DW6794 Weather Reports


Display with metric or nautical units.
time (UTC)temp
F
wind
direction
speed
MPH
gust
MPH
rain 1hr
in
rain 24hr
in
rain mn
in
humidity
%
barometer
mb
20140827170401 80 79 3.0 7.0 0.00 0.00 0.00 62 1015.1
20140827165401 80 32 1.0 10.0 0.00 0.00 0.00 65 1015.0
20140827164401 80 19 1.0 7.0 0.00 0.00 0.00 66 1015.3
20140827163400 80 30 0.0 6.0 0.00 0.00 0.00 68 1015.3
20140827162401 79 67 0.0 0.0 0.00 0.00 0.00 69 1015.4
20140827161400 79 9 0.0 0.0 0.00 0.00 0.00 69 1015.6
20140827160401 78 355 0.0 0.0 0.00 0.00 0.00 71 1015.8
20140827155401 78 59 0.0 0.0 0.00 0.00 0.00 72 1015.8
20140827154401 77 59 0.0 0.0 0.00 0.00 0.00 74 1015.9
20140827153401 76 59 0.0 0.0 0.00 0.00 0.00 74 1016.0
20140827152401 76 54 0.0 0.0 0.00 0.00 0.00 76 1016.0
20140827151401 75 54 0.0 0.0 0.00 0.00 0.00 77 1016.2
20140827150402 75 55 0.0 0.0 0.00 0.00 0.00 77 1016.3
20140827145401 74 55 0.0 0.0 0.00 0.00 0.00 78 1016.1
20140827144402 73 55 0.0 0.0 0.00 0.00 0.00 80 1016.4
20140827143402 72 55 0.0 0.0 0.00 0.00 0.00 81 1016.5
20140827142401 71 55 0.0 0.0 0.00 0.00 0.00 82 1016.3
20140827141401 70 55 0.0 0.0 0.00 0.00 0.00 83 1016.4
20140827140401 69 55 0.0 0.0 0.00 0.00 0.00 84 1016.6
20140827135401 68 55 0.0 0.0 0.00 0.00 0.00 84 1016.7
20140827134402 67 55 0.0 0.0 0.00 0.00 0.00 85 1016.9
20140827133401 65 55 0.0 0.0 0.00 0.00 0.00 85 1016.9
20140827132401 64 55 0.0 0.0 0.00 0.00 0.00 86 1016.9
20140827131402 63 55 0.0 0.0 0.00 0.00 0.00 86 1017.0
20140827130401 63 55 0.0 0.0 0.00 0.00 0.00 86 1016.8
20140827125402 62 55 0.0 0.0 0.00 0.00 0.00 86 1016.6
20140827124402 60 55 0.0 0.0 0.00 0.00 0.00 86 1016.6
20140827123402 60 55 0.0 0.0 0.00 0.00 0.00 86 1016.5
20140827122401 59 55 0.0 0.0 0.00 0.00 0.00 86 1016.6
20140827121402 58 55 0.0 0.0 0.00 0.00 0.00 86 1016.6
20140827120401 57 55 0.0 0.0 0.00 0.00 0.00 86 1016.7
20140827115402 56 55 0.0 0.0 0.00 0.00 0.00 86 1016.3
20140827114401 55 55 0.0 0.0 0.00 0.00 0.00 85 1016.3
20140827113402 54 55 0.0 0.0 0.00 0.00 0.00 85 1016.3
20140827112402 54 55 0.0 0.0 0.00 0.00 0.00 85 1016.3
20140827111402 53 55 0.0 0.0 0.00 0.00 0.00 85 1016.3
20140827110402 53 55 0.0 0.0 0.00 0.00 0.00 84 1016.1
20140827105402 53 55 0.0 0.0 0.00 0.00 0.00 84 1015.9
20140827104402 53 55 0.0 0.0 0.00 0.00 0.00 83 1015.7
20140827103402 54 55 0.0 0.0 0.00 0.00 0.00 83 1015.5
20140827102402 54 55 0.0 0.0 0.00 0.00 0.00 83 1015.1
20140827101402 54 55 0.0 0.0 0.00 0.00 0.00 83 1015.1
20140827100402 54 55 0.0 0.0 0.00 0.00 0.00 83 1015.0
20140827095403 54 55 0.0 0.0 0.00 0.00 0.00 83 1015.0
20140827094402 54 55 0.0 0.0 0.00 0.00 0.00 83 1015.0
20140827093402 54 55 0.0 0.0 0.00 0.00 0.00 83 1014.8
20140827085423 54 55 0.0 0.0 0.00 0.00 0.00 82 1015.0
20140827084404 55 55 0.0 0.0 0.00 0.00 0.00 82 1014.9
20140827082433 55 55 0.0 0.0 0.00 0.00 0.00 81 1014.8
20140827081426 55 55 0.0 0.0 0.00 0.00 0.00 80 1014.6
20140827080433 55 55 0.0 0.0 0.00 0.00 0.00 80 1014.5
20140827063423 57 55 0.0 0.0 0.00 0.00 0.00 80 1015.0
20140827061422 57 55 0.0 0.0 0.00 0.00 0.00 78 1015.1
20140827055409 57 55 0.0 0.0 0.00 0.00 0.00 78 1015.1
20140827054430 58 55 0.0 0.0 0.00 0.00 0.00 78 1015.1
20140827053403 58 55 0.0 0.0 0.00 0.00 0.00 77 1015.1
20140827052409 58 55 0.0 0.0 0.00 0.00 0.00 76 1015.1
20140827051432 58 55 0.0 0.0 0.00 0.00 0.00 76 1015.2
20140827050423 58 55 0.0 0.0 0.00 0.00 0.00 76 1015.0
20140827045403 59 55 0.0 0.0 0.00 0.00 0.00 75 1015.2
20140827044430 59 55 0.0 0.0 0.00 0.00 0.00 75 1015.2
20140827043414 60 55 0.0 0.0 0.00 0.00 0.00 74 1015.2
20140827042430 60 55 0.0 0.0 0.00 0.00 0.00 73 1015.4
20140827041425 60 55 0.0 0.0 0.00 0.00 0.00 73 1015.2
20140827040420 60 55 0.0 0.0 0.00 0.00 0.00 72 1015.1
20140827035405 60 55 0.0 0.0 0.00 0.00 0.00 73 1015.1
20140827034405 61 55 0.0 0.0 0.00 0.00 0.00 72 1015.1
20140827033425 61 55 0.0 0.0 0.00 0.00 0.00 71 1015.3
20140827032424 62 55 0.0 0.0 0.00 0.00 0.00 70 1015.3
20140827031403 62 55 0.0 0.0 0.00 0.00 0.00 69 1015.5
20140827030412 62 55 0.0 0.0 0.00 0.00 0.00 69 1015.5
20140827025405 62 55 0.0 0.0 0.00 0.00 0.00 68 1015.6
20140827024411 62 55 0.0 0.0 0.00 0.00 0.00 69 1015.5
20140827023404 63 55 0.0 0.0 0.00 0.00 0.00 68 1015.6
20140827022428 63 55 0.0 0.0 0.00 0.00 0.00 67 1016.0
20140827021432 64 55 0.0 0.0 0.00 0.00 0.00 67 1015.7
20140827020433 64 55 0.0 0.0 0.00 0.00 0.00 65 1015.7
20140827015410 64 55 0.0 0.0 0.00 0.00 0.00 65 1015.9
20140827014408 65 55 0.0 0.0 0.00 0.00 0.00 65 1015.7
20140827013408 66 55 0.0 0.0 0.00 0.00 0.00 62 1015.6
20140827012408 66 55 0.0 0.0 0.00 0.00 0.00 60 1015.3
20140827011409 67 55 0.0 0.0 0.00 0.00 0.00 61 1015.0
20140827010408 68 55 0.0 0.0 0.00 0.00 0.00 59 1014.9
20140827005409 69 55 0.0 0.0 0.00 0.00 0.00 58 1015.1
20140827004408 71 55 0.0 0.0 0.00 0.00 0.00 56 1014.7
20140827003408 72 55 0.0 0.0 0.00 0.00 0.00 53 1014.5
20140827002408 74 55 0.0 0.0 0.00 0.00 0.00 51 1014.4
20140827001408 76 55 0.0 0.0 0.00 0.00 0.00 48 1014.3
20140827000409 77 55 0.0 0.0 0.00 0.00 0.00 48 1013.9
20140826235409 79 55 0.0 0.0 0.00 0.00 0.00 47 1014.1
20140826234409 80 55 0.0 0.0 0.00 0.00 0.00 46 1014.0
20140826233408 81 55 0.0 0.0 0.00 0.00 0.00 44 1014.0
20140826232409 81 55 0.0 0.0 0.00 0.00 0.00 43 1014.2
20140826231408 82 55 0.0 1.0 0.00 0.00 0.00 43 1013.9
20140826230409 82 55 0.0 5.0 0.00 0.00 0.00 43 1014.2
20140826225408 83 54 1.0 5.0 0.00 0.00 0.00 43 1014.3
20140826224409 83 53 3.0 10.0 0.00 0.00 0.00 43 1014.3
20140826223409 83 69 5.0 9.0 0.00 0.00 0.00 43 1014.1
20140826222409 83 69 2.0 7.0 0.00 0.00 0.00 44 1014.1
20140826221409 84 69 6.0 10.0 0.00 0.00 0.00 44 1014.0
20140826220409 84 65 5.0 8.0 0.00 0.00 0.00 44 1014.0
20140826215409 84 65 3.0 7.0 0.00 0.00 0.00 45 1013.9
20140826214409 85 61 5.0 8.0 0.00 0.00 0.00 45 1013.8
20140826213409 85 59 1.0 6.0 0.00 0.00 0.00 46 1013.9
20140826212410 85 34 0.0 9.0 0.00 0.00 0.00 46 1013.8
20140826211409 84 61 0.0 7.0 0.00 0.00 0.00 46 1013.8
20140826210409 84 75 0.0 8.0 0.00 0.00 0.00 46 1014.0
20140826205409 85 60 5.0 12.0 0.00 0.00 0.00 47 1013.9
20140826204409 84 78 1.0 6.0 0.00 0.00 0.00 49 1014.1
20140826203409 84 63 2.0 7.0 0.00 0.00 0.00 50 1014.2
20140826202409 84 14 0.0 5.0 0.00 0.00 0.00 51 1014.3
20140826201409 84 17 2.0 8.0 0.00 0.00 0.00 51 1014.3
20140826200409 84 275 0.0 6.0 0.00 0.00 0.00 52 1014.4
20140826195410 83 65 2.0 5.0 0.00 0.00 0.00 53 1014.6
20140826194410 82 65 1.0 5.0 0.00 0.00 0.00 53 1014.8
20140826193410 82 40 3.0 9.0 0.00 0.00 0.00 54 1014.9
20140826192409 81 83 0.0 0.0 0.00 0.00 0.00 55 1014.9
20140826191409 82 84 0.0 0.0 0.00 0.00 0.00 55 1015.1
20140826190410 81 84 0.0 0.0 0.00 0.00 0.00 55 1015.3
20140826185410 82 68 0.0 0.0 0.00 0.00 0.00 55 1015.3
20140826184410 82 174 0.0 0.0 0.00 0.00 0.00 59 1015.3
20140826183410 81 172 0.0 0.0 0.00 0.00 0.00 59 1015.8
20140826182410 80 171 0.0 0.0 0.00 0.00 0.00 59 1015.9
20140826181410 80 136 0.0 0.0 0.00 0.00 0.00 59 1016.0
20140826180410 80 51 0.0 0.0 0.00 0.00 0.00 59 1016.0
20140826175410 81 76 0.0 0.0 0.00 0.00 0.00 60 1016.0
20140826174410 81 62 0.0 0.0 0.00 0.00 0.00 60 1016.2
20140826173410 81 336 0.0 0.0 0.00 0.00 0.00 63 1016.3
20140826172410 80 145 0.0 0.0 0.00 0.00 0.00 63 1016.4
20140826171410 80 355 0.0 3.0 0.00 0.00 0.00 65 1016.8